SCP
0 0 0 0 0 0 0 0 0 0 0 0 0 0 0 0 0 0 0 0 0 0 0 0 0 0 0 0 0 0 0 0 0 0 0 0 0 0 0 0 0 0 0
0 0 0 0 0 0 0 0 0 0 0 0 0 0 0 0 0 0 0 0 0 0 0 0 0 0 0 0 0 0 0 0 0 0 0 0 0 0 0 0 0 0 0
0 0 0 0 0 0 0 0 0 0 0 0 0 0 0 0 0 0 0 0 0 0 0 0 0 0 0 0 0 0 0 0 0 0 0 0 0 0 0 0 0 0 0
0 0 0 0 0 0 0 0 0 0 0 0 0 0 0 0 0 0 0 0 0 0 0 0 0 0 0 0 0 0 0 0 0 0 0 0 0 0 0 0 0 0 0
0 0 0 0 0 0 0 0 0 0 0 0 0 0 0 0 0 0 0 0 0 0 0 0 0 0 0 0 0 0 0 0 0 0 0 0 0 0 0 0 0 0 0
0 0 0 0 0 0 0 0 0 0 0 0 0 0 0 0 0 0 0 0 0 0 0 0 0 0 0 0 0 0 0 0 0 0 0 0 0 0 0 0 0 0 0
0 0 0 0 0 0 0 0 0 0 0 0 0 0 0 0 0 0 0 0 0 0 0 0 0 0 0 0 0 0 0 0 0 0 0 0 0 0 0 0 0 0 0
0 0 0 0 0 0 0 0 0 0 0 0 0 0 0 0 0 0 0 0 0 0 0 0 0 0 0 0 0 0 0 0 0 0 0 0 0 0 0 0 0 0 0
0 0 0 0 0 0 0 0 0 0 0 0 0 0 0 0 0 0 0 0 0 0 0 0 0 0 0 0 0 0 0 0 0 0 0 0 0 0 0 0 0 0 0
0 0 0 0 0 0 0 0 0 0 0 0 0 0 0 0 0 0 0 0 0 0 0 0 0 0 0 0 0 0 0 0 0 0 0 0 0 0 0 0 0 0 0
0 0 0 0 0 0 0 0 0 0 0 0 0 0 0 0 0 0 0 0 0 0 0 0 0 0 0 0 0 0 0 0 0 0 0 0 0 0 0 0 0 0 0
0 0 0 0 0 0 0 -0 -0 0 0 0 0 0 0 0 0 0 0 0 0 0 0 0 0 0 0 0 0 0 0 0 0 0 0 0 0 0 0 0 0 0 0
0 0 0 0 0 0 -0 -0 -0 0 0 0 0 0 0 0 0 0 0 0 0 0 0 0 0 0 0 0 0 0 0 0 0 0 0 0 0 0 0 0 0 0 0
0 0 0 0 -0 -0 -0 -0 -0 0 0 0 0 0 0 0 0 0 0 0 0 0 0 0 0 0 0 0 0 0 0 0 0 0 0 0 0 0 0 0 0 0 0
0 0 0 0 -0 0 0 0 0 0 0 0 0 0 0 0 0 0 0 0 0 0 0 0 0 0 0 0 0 0 0 0 0 0 0 0 0 0 0 0 0 0 0
0 0 0 0 0 0 0 0 0 0 0 0 0 0 0 0 0 0 0 0 0 0 0 0 0 0 0 0 0 0 0 0 0 0 0 0 0 0 0 0 0 0 0
0 -0 -0 -0 -0 0 0 0 0 0 0 0 0 0 0 0 0 0 0 0 0 0 0 0 0 0 0 0 0 0 0 0 0 0 0 0 0 0 0 0 0 0 0
0 0 0 0 0 0 0 0 0 0 0 0 0 0 0 0 0 0 0 0 0 0 0 0 0 0 0 0 0 0 0 0 0 0 0 0 0 0 0 0 0 0 0
0 0 0 0 0 0 0 0 0 0 0 0 0 0 0 0 0 0 0 0 0 0 0 0 0 0 0 0 0 0 0 0 0 0 0 0 0 0 0 0 0 0 0
0 0 0 0 0 0 0 0 0 0 0 0 0 0 0 0 0 0 0 0 0 0 0 0 0 0 0 0 0 0 0 0 0 0 0 0 0 0 0 0 0 0 0
0 0 0 0 0 0 0 0 0 0 0 0 0 0 0 0 0 0 0 0 0 0 0 0 0 0 0 0 0 0 0 0 0 0 0 0 0 0 0 0 0 0 0
0 0 0 0 0 0 0 0 0 0 0 0 0 0 0 0 0 0 0 0 0 0 0 0 0 0 0 0 0 0 0 0 0 0 0 0 0 0 0 0 0 0 0
0 0 0 0 0 0 0 0 0 0 0 0 0 0 0 0 0 0 0 0 0 0 0 0 0 0 0 0 0 0 0 0 0 0 0 0 0 0 0 0 0 0 0
0 0 0 0 0 0 0 0 0 0 0 0 0 0 0 0 0 0 0 0 0 0 0 0 0 0 0 0 0 0 0 0 0 0 0 0 0 0 0 0 0 0 0
0 0 0 0 0 0 0 0 0 0 0 0 0 0 0 0 0 0 0 0 0 0 0 0 0 0 0 0 0 0 0 0 0 0 0 0 0 0 0 0 0 0 0
0 0 0 0 0 0 0 0 0 0 0 0 0 0 0 0 0 0 0 0 0 0 0 0 0 0 0 0 0 0 0 0 0 0 0 0 0 0 0 0 0 0 0
Wind_Speed_500mb
48 47 52 48 61 62 63 73 80 79 80 85 82 76 74 69 64 62 61 59 58 54 53 49 55 53 53 43 40 41 42 47 47 48 39 33 30 31 27 24 19 16 14
44 44 58 58 52 63 69 75 78 78 79 79 80 80 77 77 72 70 68 69 65 56 60 60 60 74 57 49 52 51 48 54 50 49 48 30 26 25 22 20 20 20 18
45 41 53 63 51 54 67 73 74 74 76 74 77 79 78 77 77 76 74 70 65 63 65 58 60 76 63 55 59 53 55 50 62 57 30 20 17 32 24 25 24 22 20
39 45 39 50 50 53 55 65 68 71 72 77 74 75 79 80 80 76 72 69 68 70 68 61 61 64 53 54 68 64 63 55 68 67 58 32 23 30 26 31 27 26 24
25 27 36 32 40 46 52 57 65 70 71 74 74 71 71 72 73 71 70 69 67 67 70 64 62 64 55 59 69 67 65 68 75 69 62 51 33 29 25 37 42 36 29
30 32 31 35 41 42 47 51 60 65 71 74 71 73 65 63 68 68 68 70 71 69 69 68 62 65 69 61 67 68 75 78 73 72 64 63 50 40 30 25 45 39 34
19 21 24 26 29 36 41 47 51 56 67 71 72 72 67 63 64 59 57 58 64 68 69 65 66 67 64 63 62 72 73 80 84 72 66 61 61 45 39 38 45 50 40
21 23 20 22 25 27 30 35 41 45 58 62 59 64 63 67 62 57 55 53 52 53 58 60 61 64 63 70 68 71 72 79 77 69 61 59 62 60 55 54 51 47 42
24 21 21 21 21 24 27 30 29 34 45 51 46 53 57 63 59 56 54 52 54 53 53 57 60 56 62 67 68 65 72 73 74 69 62 59 55 55 55 54 51 53 44
33 30 22 18 15 13 15 17 19 23 31 38 40 43 46 49 52 53 53 52 52 49 42 46 53 55 56 60 66 66 65 69 68 67 65 57 54 52 52 49 48 46 29
27 25 25 26 19 11 5 5 7 10 17 24 31 39 43 43 46 47 49 51 49 47 49 49 50 53 57 64 60 63 67 70 70 66 61 59 52 53 51 47 49 46 30
17 26 30 23 17 12 7 7 11 15 18 22 28 35 42 47 50 49 50 51 49 48 48 48 52 54 57 59 61 64 67 62 59 55 59 54 57 53 50 49 47 40 31
18 27 25 21 14 7 3 9 16 20 26 32 35 37 44 48 49 48 49 48 49 49 50 51 54 56 58 58 59 59 58 56 54 52 49 56 55 53 49 42 39 31 22
23 25 21 16 16 16 14 21 25 30 35 40 43 45 51 48 47 47 46 46 45 46 49 51 51 53 54 54 54 53 52 51 52 50 53 58 53 47 44 42 33 30 24
18 31 31 25 22 31 34 31 37 41 44 47 50 52 53 54 50 49 46 44 45 44 49 49 49 50 51 52 54 54 59 57 54 61 59 52 48 40 38 37 40 23 28
39 46 60 62 59 52 49 49 53 55 54 53 57 56 55 56 58 53 48 46 47 47 46 48 46 50 53 53 53 57 56 56 54 58 48 61 45 45 45 48 29 31 27
37 41 43 37 43 47 44 50 56 56 62 64 64 61 58 57 59 54 52 49 46 43 45 46 47 50 53 56 60 58 59 58 59 58 67 57 49 54 45 34 34 30 35
40 40 45 49 50 53 57 62 64 64 64 65 67 65 61 57 57 56 54 50 46 43 44 47 47 51 52 59 63 62 64 58 59 63 58 61 61 46 37 38 36 37 44
38 40 43 49 51 52 54 52 52 54 57 59 62 62 60 58 56 56 54 50 48 45 42 45 46 49 54 62 68 68 70 68 69 65 70 65 50 47 45 32 42 40 47
41 45 44 43 47 47 45 46 45 46 49 49 52 55 55 54 52 51 51 49 45 39 38 42 44 47 54 67 74 75 78 71 65 69 67 62 56 39 51 49 47 46 49
43 43 37 36 36 38 40 37 37 38 37 38 40 43 46 45 43 44 47 45 45 42 37 40 41 46 53 70 74 80 79 70 73 71 76 60 42 50 47 42 53 54 48
43 41 44 39 36 34 35 38 31 26 28 29 31 31 33 35 38 41 44 44 42 41 44 43 42 46 53 68 74 73 73 67 69 73 67 53 62 55 53 57 56 53 53
42 41 44 50 46 41 32 30 33 28 25 22 23 25 26 29 33 38 40 41 39 43 43 43 44 45 50 58 70 69 67 68 67 71 70 61 65 60 59 55 56 57 61
49 48 52 56 44 38 38 38 34 33 24 26 25 23 26 28 28 29 34 37 40 40 41 42 40 41 40 47 66 72 72 66 71 67 66 65 70 71 65 65 65 60 63
50 53 53 54 53 49 46 42 35 31 30 24 28 24 26 27 28 31 31 34 36 35 34 34 34 39 36 38 47 63 75 76 70 66 66 69 72 79 77 80 72 64 62
35 35 40 41 40 42 40 37 36 30 26 27 25 24 25 28 28 32 33 34 34 32 31 32 33 34 28 26 27 40 61 67 63 68 71 74 76 81 79 84 82 72 69
Wind_Direction_500mb
254 252 242 244 224 226 220 220 225 229 225 225 229 228 230 230 233 234 236 238 244 239 239 244 228 238 227 235 228 230 217 202 202 185 174 172 185 191 187 187 183 169 160
255 248 243 233 233 224 222 223 230 233 233 228 230 230 233 232 234 237 237 239 241 238 239 240 242 243 234 228 234 225 208 207 204 201 188 182 195 190 190 184 182 180 169
256 246 238 228 227 234 230 228 229 231 236 235 230 231 232 234 235 236 237 240 233 226 241 238 236 236 243 241 231 239 223 227 209 207 200 182 204 189 193 195 193 187 176
247 239 235 229 230 239 233 229 229 230 234 240 235 233 235 235 237 239 239 239 233 237 240 243 240 239 234 251 238 232 225 238 221 205 207 210 214 189 189 198 199 195 187
197 210 227 232 234 244 240 230 229 228 232 237 242 238 236 238 240 240 238 238 237 234 239 238 242 242 246 243 235 229 235 233 228 219 216 214 216 213 212 194 194 194 190
211 215 220 223 234 232 232 230 227 227 231 234 238 242 238 237 239 239 241 242 241 241 238 236 237 238 245 242 238 233 233 233 223 224 219 218 215 216 212 209 197 199 189
214 213 219 226 229 232 231 231 230 227 231 235 236 239 240 238 243 244 246 244 239 242 237 232 237 238 243 243 244 239 241 233 224 226 219 222 232 233 236 240 198 190 188
216 218 226 242 242 239 237 235 229 226 235 241 242 240 238 241 243 245 247 243 243 239 233 237 240 238 242 248 239 239 237 233 229 227 219 231 239 239 241 243 223 191 188
207 228 249 251 246 244 241 238 233 232 238 249 246 244 239 240 243 246 244 241 242 237 237 236 240 243 241 244 239 239 238 227 226 223 226 232 238 238 238 240 235 218 186
220 236 226 200 190 190 209 221 228 233 238 252 254 248 243 242 244 242 242 242 238 243 240 242 241 239 247 246 244 236 228 225 224 224 230 236 239 238 228 226 214 207 204
226 218 186 163 159 147 162 227 256 273 264 263 258 255 254 250 247 246 244 242 242 241 243 245 248 247 247 241 237 235 229 226 225 227 229 235 236 228 217 211 202 202 222
213 190 171 163 158 160 176 225 244 253 255 263 265 261 252 248 247 245 245 243 241 244 245 250 247 248 244 240 241 238 232 223 223 224 230 226 220 209 205 195 197 211 210
201 190 183 184 171 172 263 287 278 273 266 258 256 259 257 252 249 247 247 246 240 239 242 248 249 250 245 242 239 231 226 221 218 215 228 217 208 200 193 199 200 198 197
224 212 223 217 225 243 265 298 300 291 280 269 260 263 263 258 250 248 247 245 245 243 247 247 246 247 242 237 233 228 215 208 210 216 216 210 203 198 202 196 190 212 237
249 254 261 261 270 270 266 264 281 279 280 274 264 264 265 259 250 245 244 244 244 247 245 246 245 238 232 230 228 219 209 209 212 205 206 197 197 203 197 195 221 218 220
282 296 294 288 281 287 291 278 285 279 270 271 271 266 265 261 254 249 243 240 240 241 243 247 245 237 228 225 218 215 209 214 204 206 204 206 199 195 206 231 208 221 239
302 305 307 308 307 303 300 284 288 285 278 274 271 264 261 258 253 251 246 242 241 242 242 242 242 235 228 218 211 212 213 208 213 218 212 193 202 207 229 218 230 221 237
305 293 287 290 292 292 293 294 292 289 280 274 267 261 258 257 252 247 245 243 241 242 243 243 238 233 227 217 214 212 210 216 219 214 212 216 215 234 245 241 235 232 239
321 312 308 307 304 298 297 296 292 288 280 272 266 261 259 254 249 247 246 244 242 242 244 243 238 233 222 215 214 211 217 214 216 214 216 212 224 237 251 264 256 233 241
326 312 309 308 311 308 302 299 296 289 283 277 271 265 258 253 250 248 247 245 243 242 247 245 240 232 219 216 220 214 224 220 211 215 213 222 226 244 262 272 253 235 241
332 331 323 316 316 317 313 307 306 302 293 282 272 264 260 255 248 242 239 239 237 232 238 244 242 237 223 220 230 221 223 222 212 220 219 216 237 252 267 274 284 247 245
317 321 322 316 311 312 316 313 305 302 300 294 282 270 259 251 242 234 233 232 233 233 237 239 238 237 231 224 229 229 227 222 221 226 221 235 241 252 260 268 282 250 247
299 304 304 309 313 309 307 305 305 303 305 299 292 276 261 248 238 231 230 231 232 234 234 237 239 239 235 229 223 220 229 238 220 229 231 232 243 249 255 268 278 263 258
297 296 299 298 295 294 302 300 297 295 294 306 299 275 261 247 239 240 237 235 236 238 237 239 242 245 246 238 224 217 226 228 226 230 239 231 239 248 256 267 271 266 263
293 296 298 293 290 289 292 288 282 274 269 266 272 266 258 259 254 248 245 247 248 249 253 254 250 246 255 254 239 230 222 223 230 233 244 235 239 244 250 263 269 265 266
300 305 308 305 299 295 294 286 276 265 264 259 249 246 248 249 245 245 242 240 240 239 244 245 250 244 259 256 249 241 228 233 239 236 250 242 241 246 256 265 265 266 266
Wind_Speed_850mb
48 47 52 48 61 62 63 73 80 79 80 85 82 76 74 69 64 62 61 59 58 54 53 49 55 53 53 43 40 41 42 47 47 48 39 33 30 31 27 24 19 16 14
44 44 58 58 52 63 69 75 78 78 79 79 80 80 77 77 72 70 68 69 65 56 60 60 60 74 57 49 52 51 48 54 50 49 48 30 26 25 22 20 20 20 18
45 41 53 63 51 54 67 73 74 74 76 74 77 79 78 77 77 76 74 70 65 63 65 58 60 76 63 55 59 53 55 50 62 57 30 20 17 32 24 25 24 22 20
39 45 39 50 50 53 55 65 68 71 72 77 74 75 79 80 80 76 72 69 68 70 68 61 61 64 53 54 68 64 63 55 68 67 58 32 23 30 26 31 27 26 24
25 27 36 32 40 46 52 57 65 70 71 74 74 71 71 72 73 71 70 69 67 67 70 64 62 64 55 59 69 67 65 68 75 69 62 51 33 29 25 37 42 36 29
30 32 31 35 41 42 47 51 60 65 71 74 71 73 65 63 68 68 68 70 71 69 69 68 62 65 69 61 67 68 75 78 73 72 64 63 50 40 30 25 45 39 34
19 21 24 26 29 36 41 47 51 56 67 71 72 72 67 63 64 59 57 58 64 68 69 65 66 67 64 63 62 72 73 80 84 72 66 61 61 45 39 38 45 50 40
21 23 20 22 25 27 30 35 41 45 58 62 59 64 63 67 62 57 55 53 52 53 58 60 61 64 63 70 68 71 72 79 77 69 61 59 62 60 55 54 51 47 42
24 21 21 21 21 24 27 30 29 34 45 51 46 53 57 63 59 56 54 52 54 53 53 57 60 56 62 67 68 65 72 73 74 69 62 59 55 55 55 54 51 53 44
33 30 22 18 15 13 15 17 19 23 31 38 40 43 46 49 52 53 53 52 52 49 42 46 53 55 56 60 66 66 65 69 68 67 65 57 54 52 52 49 48 46 29
27 25 25 26 19 11 5 5 7 10 17 24 31 39 43 43 46 47 49 51 49 47 49 49 50 53 57 64 60 63 67 70 70 66 61 59 52 53 51 47 49 46 30
17 26 30 23 17 12 7 7 11 15 18 22 28 35 42 47 50 49 50 51 49 48 48 48 52 54 57 59 61 64 67 62 59 55 59 54 57 53 50 49 47 40 31
18 27 25 21 14 7 3 9 16 20 26 32 35 37 44 48 49 48 49 48 49 49 50 51 54 56 58 58 59 59 58 56 54 52 49 56 55 53 49 42 39 31 22
23 25 21 16 16 16 14 21 25 30 35 40 43 45 51 48 47 47 46 46 45 46 49 51 51 53 54 54 54 53 52 51 52 50 53 58 53 47 44 42 33 30 24
18 31 31 25 22 31 34 31 37 41 44 47 50 52 53 54 50 49 46 44 45 44 49 49 49 50 51 52 54 54 59 57 54 61 59 52 48 40 38 37 40 23 28
39 46 60 62 59 52 49 49 53 55 54 53 57 56 55 56 58 53 48 46 47 47 46 48 46 50 53 53 53 57 56 56 54 58 48 61 45 45 45 48 29 31 27
37 41 43 37 43 47 44 50 56 56 62 64 64 61 58 57 59 54 52 49 46 43 45 46 47 50 53 56 60 58 59 58 59 58 67 57 49 54 45 34 34 30 35
40 40 45 49 50 53 57 62 64 64 64 65 67 65 61 57 57 56 54 50 46 43 44 47 47 51 52 59 63 62 64 58 59 63 58 61 61 46 37 38 36 37 44
38 40 43 49 51 52 54 52 52 54 57 59 62 62 60 58 56 56 54 50 48 45 42 45 46 49 54 62 68 68 70 68 69 65 70 65 50 47 45 32 42 40 47
41 45 44 43 47 47 45 46 45 46 49 49 52 55 55 54 52 51 51 49 45 39 38 42 44 47 54 67 74 75 78 71 65 69 67 62 56 39 51 49 47 46 49
43 43 37 36 36 38 40 37 37 38 37 38 40 43 46 45 43 44 47 45 45 42 37 40 41 46 53 70 74 80 79 70 73 71 76 60 42 50 47 42 53 54 48
43 41 44 39 36 34 35 38 31 26 28 29 31 31 33 35 38 41 44 44 42 41 44 43 42 46 53 68 74 73 73 67 69 73 67 53 62 55 53 57 56 53 53
42 41 44 50 46 41 32 30 33 28 25 22 23 25 26 29 33 38 40 41 39 43 43 43 44 45 50 58 70 69 67 68 67 71 70 61 65 60 59 55 56 57 61
49 48 52 56 44 38 38 38 34 33 24 26 25 23 26 28 28 29 34 37 40 40 41 42 40 41 40 47 66 72 72 66 71 67 66 65 70 71 65 65 65 60 63
50 53 53 54 53 49 46 42 35 31 30 24 28 24 26 27 28 31 31 34 36 35 34 34 34 39 36 38 47 63 75 76 70 66 66 69 72 79 77 80 72 64 62
35 35 40 41 40 42 40 37 36 30 26 27 25 24 25 28 28 32 33 34 34 32 31 32 33 34 28 26 27 40 61 67 63 68 71 74 76 81 79 84 82 72 69
Wind_Direction_850mb
254 252 242 244 224 226 220 220 225 229 225 225 229 228 230 230 233 234 236 238 244 239 239 244 228 238 227 235 228 230 217 202 202 185 174 172 185 191 187 187 183 169 160
255 248 243 233 233 224 222 223 230 233 233 228 230 230 233 232 234 237 237 239 241 238 239 240 242 243 234 228 234 225 208 207 204 201 188 182 195 190 190 184 182 180 169
256 246 238 228 227 234 230 228 229 231 236 235 230 231 232 234 235 236 237 240 233 226 241 238 236 236 243 241 231 239 223 227 209 207 200 182 204 189 193 195 193 187 176
247 239 235 229 230 239 233 229 229 230 234 240 235 233 235 235 237 239 239 239 233 237 240 243 240 239 234 251 238 232 225 238 221 205 207 210 214 189 189 198 199 195 187
197 210 227 232 234 244 240 230 229 228 232 237 242 238 236 238 240 240 238 238 237 234 239 238 242 242 246 243 235 229 235 233 228 219 216 214 216 213 212 194 194 194 190
211 215 220 223 234 232 232 230 227 227 231 234 238 242 238 237 239 239 241 242 241 241 238 236 237 238 245 242 238 233 233 233 223 224 219 218 215 216 212 209 197 199 189
214 213 219 226 229 232 231 231 230 227 231 235 236 239 240 238 243 244 246 244 239 242 237 232 237 238 243 243 244 239 241 233 224 226 219 222 232 233 236 240 198 190 188
216 218 226 242 242 239 237 235 229 226 235 241 242 240 238 241 243 245 247 243 243 239 233 237 240 238 242 248 239 239 237 233 229 227 219 231 239 239 241 243 223 191 188
207 228 249 251 246 244 241 238 233 232 238 249 246 244 239 240 243 246 244 241 242 237 237 236 240 243 241 244 239 239 238 227 226 223 226 232 238 238 238 240 235 218 186
220 236 226 200 190 190 209 221 228 233 238 252 254 248 243 242 244 242 242 242 238 243 240 242 241 239 247 246 244 236 228 225 224 224 230 236 239 238 228 226 214 207 204
226 218 186 163 159 147 162 227 256 273 264 263 258 255 254 250 247 246 244 242 242 241 243 245 248 247 247 241 237 235 229 226 225 227 229 235 236 228 217 211 202 202 222
213 190 171 163 158 160 176 225 244 253 255 263 265 261 252 248 247 245 245 243 241 244 245 250 247 248 244 240 241 238 232 223 223 224 230 226 220 209 205 195 197 211 210
201 190 183 184 171 172 263 287 278 273 266 258 256 259 257 252 249 247 247 246 240 239 242 248 249 250 245 242 239 231 226 221 218 215 228 217 208 200 193 199 200 198 197
224 212 223 217 225 243 265 298 300 291 280 269 260 263 263 258 250 248 247 245 245 243 247 247 246 247 242 237 233 228 215 208 210 216 216 210 203 198 202 196 190 212 237
249 254 261 261 270 270 266 264 281 279 280 274 264 264 265 259 250 245 244 244 244 247 245 246 245 238 232 230 228 219 209 209 212 205 206 197 197 203 197 195 221 218 220
282 296 294 288 281 287 291 278 285 279 270 271 271 266 265 261 254 249 243 240 240 241 243 247 245 237 228 225 218 215 209 214 204 206 204 206 199 195 206 231 208 221 239
302 305 307 308 307 303 300 284 288 285 278 274 271 264 261 258 253 251 246 242 241 242 242 242 242 235 228 218 211 212 213 208 213 218 212 193 202 207 229 218 230 221 237
305 293 287 290 292 292 293 294 292 289 280 274 267 261 258 257 252 247 245 243 241 242 243 243 238 233 227 217 214 212 210 216 219 214 212 216 215 234 245 241 235 232 239
321 312 308 307 304 298 297 296 292 288 280 272 266 261 259 254 249 247 246 244 242 242 244 243 238 233 222 215 214 211 217 214 216 214 216 212 224 237 251 264 256 233 241
326 312 309 308 311 308 302 299 296 289 283 277 271 265 258 253 250 248 247 245 243 242 247 245 240 232 219 216 220 214 224 220 211 215 213 222 226 244 262 272 253 235 241
332 331 323 316 316 317 313 307 306 302 293 282 272 264 260 255 248 242 239 239 237 232 238 244 242 237 223 220 230 221 223 222 212 220 219 216 237 252 267 274 284 247 245
317 321 322 316 311 312 316 313 305 302 300 294 282 270 259 251 242 234 233 232 233 233 237 239 238 237 231 224 229 229 227 222 221 226 221 235 241 252 260 268 282 250 247
299 304 304 309 313 309 307 305 305 303 305 299 292 276 261 248 238 231 230 231 232 234 234 237 239 239 235 229 223 220 229 238 220 229 231 232 243 249 255 268 278 263 258
297 296 299 298 295 294 302 300 297 295 294 306 299 275 261 247 239 240 237 235 236 238 237 239 242 245 246 238 224 217 226 228 226 230 239 231 239 248 256 267 271 266 263
293 296 298 293 290 289 292 288 282 274 269 266 272 266 258 259 254 248 245 247 248 249 253 254 250 246 255 254 239 230 222 223 230 233 244 235 239 244 250 263 269 265 266
300 305 308 305 299 295 294 286 276 265 264 259 249 246 248 249 245 245 242 240 240 239 244 245 250 244 259 256 249 241 228 233 239 236 250 242 241 246 256 265 265 266 266